Weather History for KMTH - February, 2013

Change the Weather History Date:

Sunday, February 3, 2013

  Actual Average Record
Temperature  
Mean Temperature 70 °F 71 °F  
Max Temperature 74 °F 76 °F - ()
Min Temperature 66 °F 66 °F - ()
Degree Days  
Heating Degree Days 0 0  
Month to date heating degree days 0 1  
Since 1 July heating degree days 6 60  
Cooling Degree Days 5 6  
Month to date cooling degree days 13 18  
Year to date cooling degree days 341 199  
Growing Degree Days 20 (Base 50)    
Moisture  
Dew Point 53 °F    
Average Humidity 53    
Maximum Humidity 73    
Minimum Humidity 32    
Precipitation  
Precipitation 0.00 in 0.06 in - ()
Month to date precipitation 0.00 0.18  
Year to date precipitation 0.54 1.79  
Snow  
Snow 0.00 in - - ()
Month to date snowfall 0.0  
Since 1 July snowfall 0.0  
Snow Depth 0.00 in    
Sea Level Pressure  
Sea Level Pressure 30.11 in    
Wind  
Wind Speed 8 mph (North)    
Max Wind Speed 16 mph    
Max Gust Speed 23 mph    
Visibility 10 miles    
Events      
T = Trace of Precipitation, MM = Missing Value Source: NWS Daily Summary

Daily Weather History Graph

Daily Weather History Graph

Search for Another Location

Airport or City:

Trip Planner

Search our weather history database for the weather conditions in past years. The results will help you decide how hot, cold, wet, or windy it might be!

Date:

Astronomy

Feb. 03, 2013 Rise Set
Actual Time 7:05 AM EST 6:11 PM EST
Civil Twilight 6:41 AM EST 6:34 PM EST
Nautical Twilight 6:14 AM EST 7:02 PM EST
Astronomical Twilight 5:47 AM EST 7:29 PM EST
Moon 12:30 AM EST (2/3) 11:50 AM EST (2/3)
Length of Visible Light 11h 53m
Length of Day
11h 05m
Waning Gibbous, 49% of the Moon is Illuminated
Feb 3
Waning Gibbous
Feb 10
New
Feb 17
First Quarter
Feb 25
Full
Mar 4
Last Quarter

Hourly Weather History & Observations

Time (EST) Temp. Dew Point Humidity Pressure Visibility Wind Dir Wind Speed Gust Speed Precip Events Conditions
12:53 AM 68.0 °F 57.9 °F 70% 30.10 in 10.0 mi NE 6.9 mph - N/A   Clear
1:53 AM 68.0 °F 57.0 °F 68% 30.08 in 10.0 mi NE 5.8 mph - N/A   Partly Cloudy
2:53 AM 68.0 °F 57.0 °F 68% 30.07 in 10.0 mi NNE 5.8 mph - N/A   Mostly Cloudy
3:53 AM 68.0 °F 57.9 °F 70% 30.07 in 10.0 mi North 6.9 mph - N/A   Overcast
4:53 AM 68.0 °F 57.0 °F 68% 30.07 in 10.0 mi North 8.1 mph - N/A   Overcast
5:53 AM 66.9 °F 55.9 °F 68% 30.10 in 10.0 mi North 6.9 mph - N/A   Overcast
6:53 AM 68.0 °F 57.9 °F 70% 30.12 in 10.0 mi NNW 10.4 mph 17.3 mph N/A   Overcast
7:53 AM 66.9 °F 57.9 °F 73% 30.14 in 10.0 mi North 10.4 mph 18.4 mph N/A   Overcast
8:53 AM 66.9 °F 54.0 °F 63% 30.16 in 10.0 mi North 11.5 mph 19.6 mph N/A   Clear
9:53 AM 66.9 °F 53.1 °F 61% 30.18 in 10.0 mi North 10.4 mph 19.6 mph N/A   Clear
10:53 AM 71.1 °F 53.1 °F 53% 30.17 in 10.0 mi North 11.5 mph 18.4 mph N/A   Clear
11:53 AM 73.0 °F 53.1 °F 49% 30.15 in 10.0 mi North 9.2 mph 18.4 mph N/A   Clear
12:53 PM 73.9 °F 52.0 °F 46% 30.13 in 10.0 mi North 10.4 mph 16.1 mph N/A   Clear
1:53 PM 73.9 °F 53.1 °F 48% 30.10 in 10.0 mi North 6.9 mph - N/A   Clear
2:53 PM 72.0 °F 54.0 °F 53% 30.08 in 10.0 mi Variable 5.8 mph - N/A   Clear
3:53 PM 70.0 °F 53.1 °F 55% 30.08 in 10.0 mi NNW 6.9 mph - N/A   Clear
4:53 PM 69.1 °F 52.0 °F 54% 30.08 in 10.0 mi NNW 8.1 mph - N/A   Clear
5:53 PM 68.0 °F 51.1 °F 55% 30.09 in 10.0 mi NNW 8.1 mph - N/A   Clear
6:53 PM 66.9 °F 53.1 °F 61% 30.09 in 10.0 mi Variable 5.8 mph - N/A   Clear
7:53 PM 66.9 °F 53.1 °F 61% 30.10 in 10.0 mi North 5.8 mph - N/A   Clear
8:53 PM 68.0 °F 46.9 °F 47% 30.11 in 10.0 mi NNE 6.9 mph - N/A   Clear
9:53 PM 66.9 °F 46.0 °F 47% 30.11 in 10.0 mi NNE 9.2 mph - N/A   Clear
10:53 PM 68.0 °F 37.9 °F 33% 30.12 in 10.0 mi NNE 10.4 mph - N/A   Clear
11:53 PM 66.9 °F 39.9 °F 37% 30.11 in 10.0 mi NNE 11.5 mph - N/A   Clear